Flag for Austria Weather past 2 weeks in Grieskirchen, Upper Austria, Austria

Now
45 °F

Passing clouds.


Feels Like: 35 °F
Forecast: 36 / 42 °F
Wind: 28 mph from West

Location: Linz / Hoersching-Flughafen

Current Time: Mar 31, 2015 at 11:00:46 PM

Latest Report: Mar 31, 2015 at 10:20 PM


Visibility: N/A

Pressure: 29.77 "Hg

Humidity: 66%

Dew point: 34 °F

Location of GrieskirchenLocation

Historic Weather in Grieskirchen — Graph

°F

Grieskirchen temperature yesterday

Maximum temperature yesterday: 52 °F (at 12:50 AM)
Minimum temperature yesterday: 39 °F (at 9:20 PM)
Average temperature yesterday: 46 °F

Past Weeks' High & Low Weather Summary

 TemperatureHumidityPressure
High61 °F (Mar 17, 2:50 PM)100% (Mar 24, 2:20 AM)30.33 "Hg (Mar 24, 2:20 AM)
Low28 °F (Mar 21, 4:50 AM)21% (Mar 19, 2:50 PM)29.45 "Hg (Mar 31, 11:50 AM)
Average45 °F69%29.97 "Hg
* Reported Mar 16 8:20 PM — Mar 31 9:50 PM, Grieskirchen, Weather by CustomWeather, © 2015

Note: Actual official high and low records may vary slightly from our data, if they occured in-between our weather recording intervals... More about our weather records

Advertising

Grieskirchen weather history for previous 24 hours

 ConditionsComfort  
Time TempWeatherWind HumidityBarometerVisibility
9:50 PM
Tue, Mar 31
45 °FPassing clouds.25 mph66%29.74 "HgN/A
9:20 PM45 °FPassing clouds.26 mph66%29.71 "HgN/A
8:50 PM46 °FPassing clouds.32 mph62%29.71 "HgN/A
8:20 PM46 °FScattered clouds.31 mph66%29.71 "HgN/A
7:50 PM46 °FBroken clouds.33 mph66%29.68 "HgN/A
7:20 PM48 °FSprinkles. Partly sunny.36 mph66%29.65 "HgN/A
6:50 PM50 °FBroken clouds.35 mph67%29.59 "HgN/A
6:20 PM50 °FSprinkles. Broken clouds.32 mph76%29.59 "HgN/A
5:50 PM50 °FSprinkles. Partly sunny.38 mph76%29.56 "HgN/A
5:20 PM50 °FSprinkles. Broken clouds.39 mph76%29.53 "HgN/A
4:50 PM50 °FRain showers. Partly sunny.40 mph82%29.53 "Hg5 mi
4:20 PM55 °FBroken clouds.37 mph63%29.50 "Hg6 mi
3:50 PM55 °FSprinkles. Broken clouds.31 mph67%29.50 "Hg6 mi
3:20 PM55 °FBroken clouds.39 mph67%29.50 "HgN/A
2:50 PM59 °FSprinkles. Broken clouds.40 mph55%29.47 "HgN/A
2:20 PM61 °FBroken clouds.41 mph52%29.47 "HgN/A
1:50 PM59 °FPartly sunny.40 mph59%29.45 "HgN/A
1:20 PM59 °FSprinkles. Partly sunny.46 mph59%29.45 "HgN/A
12:50 PM61 °FBroken clouds.37 mph52%29.45 "HgN/A
12:20 PM59 °FBroken clouds.31 mph59%29.45 "HgN/A
11:50 AM59 °FPartly sunny.25 mph55%29.45 "HgN/A
11:20 AM46 °FPartly sunny.2 mph87%29.47 "HgN/A
10:50 AM45 °FBroken clouds.2 mph93%29.47 "HgN/A
10:20 AM43 °FLight rain. Broken clouds.3 mph93%29.47 "HgN/A
9:50 AM41 °FBroken clouds.5 mph100%29.50 "HgN/A
9:20 AM39 °FBroken clouds.5 mph100%29.50 "HgN/A
8:50 AM39 °FBroken clouds.2 mph93%29.56 "HgN/A
8:20 AM39 °FLight rain. Broken clouds.5 mph93%29.59 "HgN/A
7:50 AM39 °FLight rain. Broken clouds.6 mph93%29.59 "Hg4 mi
7:20 AM39 °FLight rain. Partly cloudy.6 mph93%29.62 "Hg3 mi
6:50 AM39 °FRain. Partly cloudy.6 mph93%29.65 "Hg4 mi
6:20 AM39 °FRain. Partly cloudy.2 mph93%29.71 "Hg6 mi
5:50 AM39 °FLight rain. Partly cloudy.7 mph93%29.74 "HgN/A
5:20 AM41 °FRain. Partly cloudy.9 mph81%29.77 "Hg6 mi
4:50 AM41 °FLight rain. Partly cloudy.6 mph76%29.80 "HgN/A
4:20 AM41 °FLight rain. Passing clouds.5 mph76%29.83 "HgN/A
3:50 AM41 °FPassing clouds.7 mph76%29.86 "HgN/A
3:20 AM41 °FPassing clouds.5 mph76%29.86 "HgN/A
2:50 AM41 °FPartly cloudy.6 mph76%29.86 "HgN/A
2:20 AM39 °FPassing clouds.7 mph81%29.89 "HgN/A
1:50 AM39 °FPartly cloudy.7 mph75%29.89 "HgN/A
1:20 AM39 °FPassing clouds.8 mph75%29.92 "HgN/A
12:50 AM39 °FPassing clouds.13 mph75%29.92 "HgN/A
12:20 AM41 °FOvercast.15 mph70%29.92 "HgN/A
11:50 PM
Mon, Mar 30
41 °FPassing clouds.16 mph70%29.92 "HgN/A
11:20 PM41 °FPassing clouds.14 mph76%29.92 "HgN/A
Weather by CustomWeather, © 2015

See weather overviewHow to use our weather pages